Regional Weather Roundup
Issued by NWS Little Rock, AR

Home | Current Version | Previous Version | Text Only | Print | Product List | Glossary On
Versions: 1 2 3 4 5 6 7 8 9 10 11 12 13 14 15 16 17 18 19 20 21 22 23 24 25 26 27 28 29 30 31 32 33 34 35 36 37 38 39 40 41 42 43 44 45 46 47 48 49 50
993
ASUS44 KLZK 292005
RWRLZK

WEATHER ROUNDUP FOR ARKANSAS
NATIONAL WEATHER SERVICE LITTLE ROCK AR
300 PM CDT WED MAR 29 2017

NOTE: "FAIR" INDICATES FEW OR NO CLOUDS BELOW 12,000 FEET WITH NO
SIGNIFICANT WEATHER AND/OR OBSTRUCTIONS TO VISIBILITY.

ARZ001-003-010-029-292100-
NORTHWEST ARKANSAS

CITY           SKY/WX    TMP DP  RH WIND       PRES   REMARKS
FAYETTEVILLE   CLOUDY    68  57  68 S18G32    29.72F
FORT SMITH     CLOUDY    72  56  57 SW9       29.72S
HARRISON       CLOUDY    71  57  61 S14G24    29.76S
BENTONVILLE    CLOUDY    72  55  56 S18G28    29.72F
ROGERS         CLOUDY    72  57  59 S20G38    29.72F
SILOAM SPGS    PTSUNNY   73  55  53 S33G40    29.69F
HIGHFILL       CLOUDY    70  57  63 S22G31    29.70F
SPRINGDALE     CLOUDY    70  57  64 S25G40    29.74S
$$

ARZ004-005-016-292100-
NORTH CENTRAL ARKANSAS

CITY           SKY/WX    TMP DP  RH WIND       PRES   REMARKS
BATESVILLE     CLOUDY    79  61  53 S13G20    29.79F
FLIPPIN        CLOUDY    75  55  50 S12G17    29.73S
MTN HOME       PTSUNNY   75  59  57 S12G22    29.75F
$$

ARZ040-041-292100-
WEST CENTRAL ARKANSAS

CITY           SKY/WX    TMP DP  RH WIND       PRES   REMARKS
MENA           CLOUDY    73  64  73 S8G16     29.76S
MOUNT IDA      PTSUNNY   74  60  61 S13G20    29.74F
$$

ARZ009-017-025-026-028-292100-
NORTHEAST ARKANSAS

CITY           SKY/WX    TMP DP  RH WIND       PRES   REMARKS
CORNING        MOCLDY    77  64  65 SE14      29.84S
JONESBORO      CLOUDY    79  63  57 S17G28    29.82F
NEWPORT        CLOUDY    78  63  59 S24       29.79F
WALNUT RIDGE   CLOUDY    79  61  53 S16       29.82F
BLYTHEVILLE    PTSUNNY   81  62  52 S14       29.83F
$$

ARZ022-023-033-042-044-292100-
CENTRAL ARKANSAS

CITY           SKY/WX    TMP DP  RH WIND       PRES   REMARKS
LITTLE ROCK    CLOUDY    78  64  61 S14G23    29.78R
N LITTLE ROCK    N/A     78  64  61 S13G23    29.79S
JACKSONVILLE   CLOUDY    79  64  61 SE10G20   29.78R
CONWAY           N/A     79  64  61 S17G25    29.75F
SEARCY         CLOUDY    77  65  66 S18G28    29.82F
HOT SPRINGS    CLOUDY    77  63  61 S12G28    29.78F
RUSSELLVILLE   CLOUDY    76  58  53 S7G20     29.75F
$$

ARZ036-292100-
EAST ARKANSAS

CITY           SKY/WX    TMP DP  RH WIND       PRES   REMARKS
WEST MEMPHIS   MOSUNNY   81  60  48 S21G29    29.80F
$$

ARZ050-053-066-070-073-292100-
SOUTHWEST ARKANSAS

CITY           SKY/WX    TMP DP  RH WIND       PRES   REMARKS
ARKADELPHIA    MOCLDY    78  65  63 S15G23    29.78F
CAMDEN         CLOUDY    79  57  47 S14G22    29.78F
TEXARKANA      CLOUDY    76  63  64 S15G30    29.75F
EL DORADO      CLOUDY    78  60  53 SE14G25   29.78F
DE QUEEN       CLOUDY    73  65  75 VRB7      29.73F
$$

ARZ056-057-069-292100-
SOUTHEAST ARKANSAS

CITY           SKY/WX    TMP DP  RH WIND       PRES   REMARKS
PINE BLUFF     CLOUDY    79  62  56 S16G28    29.79F
STUTTGART      CLOUDY    81  57  44 S23G31    29.81F
MONTICELLO     CLOUDY    81  59  47 S15G26    29.81F

$$






USA.gov is the U.S. government's official web portal to all federal, state and local government web resources and services.